Time,TemperatureF,DewpointF,PressureIn,WindDirection,WindDirectionDegrees,WindSpeedMPH,WindSpeedGustMPH,Humidity,HourlyPrecipIn,Conditions,Clouds,dailyrainin,SoftwareType,DateUTC
2013-04-06 00:02:00,42.1,20.1,29.67,SW,224,19.6,19.6,41,0.00,RA,,0.00,WeatherDisplay:10.37,2013-04-06 06:02:00,
2013-04-06 00:07:00,42.1,19.5,29.67,WNW,292,13.8,13.8,40,0.00,RA,,0.00,WeatherDisplay:10.37,2013-04-06 06:07:00,
2013-04-06 00:12:00,41.9,19.3,29.67,WSW,251,18.0,18.0,40,0.00,CLR,,0.00,WeatherDisplay:10.37,2013-04-06 06:12:00,
2013-04-06 00:17:00,41.6,20.2,29.67,WSW,254,8.1,8.1,42,0.00,CLR,,0.00,WeatherDisplay:10.37,2013-04-06 06:17:00,
2013-04-06 00:22:00,41.3,19.3,29.67,SW,224,11.5,11.5,41,0.00,CLR,,0.00,WeatherDisplay:10.37,2013-04-06 06:22:00,
2013-04-06 00:27:00,41.3,19.9,29.67,WNW,295,11.5,11.5,42,0.00,CLR,,0.00,WeatherDisplay:10.37,2013-04-06 06:27:00,
2013-04-06 00:32:00,41.3,19.3,29.67,WSW,251,13.8,13.8,41,0.00,CLR,,0.00,WeatherDisplay:10.37,2013-04-06 06:32:00,
2013-04-06 00:37:00,40.9,20.6,29.67,SW,235,10.4,10.4,44,0.00,CLR,,0.00,WeatherDisplay:10.37,2013-04-06 06:37:00,
2013-04-06 00:42:00,40.9,19.0,29.67,WSW,237,13.8,13.8,41,0.00,CLR,,0.00,WeatherDisplay:10.37,2013-04-06 06:42:00,
2013-04-06 00:47:00,41.1,19.2,29.68,NW,324,8.0,8.0,41,0.00,CLR,,0.00,WeatherDisplay:10.37,2013-04-06 06:47:00,
2013-04-06 00:52:00,41.2,18.7,29.68,SSW,207,11.5,11.5,40,0.00,CLR,,0.00,WeatherDisplay:10.37,2013-04-06 06:52:00,
2013-04-06 00:58:00,41.2,18.1,29.68,NW,304,5.8,5.8,39,0.00,CLR,,0.00,WeatherDisplay:10.37,2013-04-06 06:58:00,
2013-04-06 01:03:00,41.1,18.0,29.69,North,8,3.5,3.5,39,0.00,CLR,,0.00,WeatherDisplay:10.37,2013-04-06 07:03:00,
2013-04-06 01:08:00,40.6,18.1,29.69,WNW,295,8.1,8.1,40,0.00,CLR,,0.00,WeatherDisplay:10.37,2013-04-06 07:08:00,
2013-04-06 01:13:00,40.2,17.8,29.69,SSW,192,13.8,13.8,40,0.00,CLR,,0.00,WeatherDisplay:10.37,2013-04-06 07:13:00,
2013-04-06 01:18:00,40.8,17.1,29.70,SSW,203,11.5,11.5,38,0.00,CLR,,0.00,WeatherDisplay:10.37,2013-04-06 07:18:00,
2013-04-06 01:23:00,40.9,16.0,29.70,West,265,16.1,16.1,36,0.00,CLR,,0.00,WeatherDisplay:10.37,2013-04-06 07:23:00,
2013-04-06 01:28:00,41.1,16.1,29.70,NE,40,17.3,17.3,36,0.00,CLR,,0.00,WeatherDisplay:10.37,2013-04-06 07:28:00,
2013-04-06 01:33:00,40.9,15.3,29.70,WNW,286,11.5,11.5,35,0.00,CLR,,0.00,WeatherDisplay:10.37,2013-04-06 07:33:00,
2013-04-06 01:38:00,40.6,15.0,29.70,NW,324,2.3,2.3,35,0.00,CLR,,0.00,WeatherDisplay:10.37,2013-04-06 07:38:00,
2013-04-06 01:43:00,40.2,16.0,29.70,West,276,16.0,16.0,37,0.00,CLR,,0.00,WeatherDisplay:10.37,2013-04-06 07:43:00,
2013-04-06 01:48:00,39.8,15.6,29.72,WSW,251,11.5,11.5,37,0.00,CLR,,0.00,WeatherDisplay:10.37,2013-04-06 07:48:00,
2013-04-06 01:53:00,39.8,15.0,29.72,South,182,10.0,10.0,36,0.00,CLR,,0.00,WeatherDisplay:10.37,2013-04-06 07:53:00,
2013-04-06 01:58:00,40.1,15.2,29.72,West,276,11.5,11.5,36,0.00,CLR,,0.00,WeatherDisplay:10.37,2013-04-06 07:58:00,
2013-04-06 02:03:00,40.1,14.6,29.72,WSW,237,11.5,11.5,35,0.00,CLR,,0.00,WeatherDisplay:10.37,2013-04-06 08:03:00,
2013-04-06 02:08:00,39.8,16.2,29.72,South,176,11.5,11.5,38,0.00,CLR,,0.00,WeatherDisplay:10.37,2013-04-06 08:08:00,
2013-04-06 02:13:00,39.9,14.4,29.72,WNW,285,11.5,11.5,35,0.00,CLR,,0.00,WeatherDisplay:10.37,2013-04-06 08:13:00,
2013-04-06 02:19:00,39.8,15.6,29.70,SW,228,6.9,6.9,37,0.00,CLR,,0.00,WeatherDisplay:10.37,2013-04-06 08:19:00,
2013-04-06 02:24:00,39.3,15.8,29.70,WSW,252,5.8,5.8,38,0.00,CLR,,0.00,WeatherDisplay:10.37,2013-04-06 08:24:00,
2013-04-06 02:29:00,38.9,14.8,29.70,SW,218,11.5,11.5,37,0.00,CLR,,0.00,WeatherDisplay:10.37,2013-04-06 08:29:00,
2013-04-06 02:34:00,39.2,15.1,29.72,SW,234,8.1,8.1,37,0.00,CLR,,0.00,WeatherDisplay:10.37,2013-04-06 08:34:00,
2013-04-06 02:39:00,38.8,15.3,29.72,West,268,12.7,12.7,38,0.00,CLR,,0.00,WeatherDisplay:10.37,2013-04-06 08:39:00,
2013-04-06 02:44:00,38.6,15.1,29.72,WSW,245,8.0,8.0,38,0.00,CLR,,0.00,WeatherDisplay:10.37,2013-04-06 08:44:00,
2013-04-06 02:49:00,38.5,15.1,29.73,West,261,13.0,13.0,38,0.00,CLR,,0.00,WeatherDisplay:10.37,2013-04-06 08:49:00,
2013-04-06 02:54:00,38.8,15.3,29.73,SSW,203,13.8,13.8,38,0.00,CLR,,0.00,WeatherDisplay:10.37,2013-04-06 08:54:00,
2013-04-06 02:59:00,38.6,15.1,29.73,SW,224,12.7,12.7,38,0.00,CLR,,0.00,WeatherDisplay:10.37,2013-04-06 08:59:00,
2013-04-06 03:04:00,38.5,15.1,29.73,WNW,292,4.6,4.6,38,0.00,CLR,,0.00,WeatherDisplay:10.37,2013-04-06 09:04:00,
2013-04-06 03:10:00,38.3,15.5,29.73,SW,230,6.0,6.0,39,0.00,CLR,,0.00,WeatherDisplay:10.37,2013-04-06 09:10:00,
2013-04-06 03:15:00,38.2,15.4,29.73,SW,225,3.5,3.5,39,0.00,CLR,,0.00,WeatherDisplay:10.37,2013-04-06 09:15:00,
2013-04-06 03:20:00,38.0,15.2,29.73,West,278,8.1,8.1,39,0.00,CLR,,0.00,WeatherDisplay:10.37,2013-04-06 09:20:00,
2013-04-06 03:25:00,38.0,15.2,29.73,SSW,208,13.0,13.0,39,0.00,CLR,,0.00,WeatherDisplay:10.37,2013-04-06 09:25:00,
2013-04-06 03:30:00,38.2,14.8,29.73,SW,231,7.0,7.5,38,0.00,CLR,,0.00,WeatherDisplay:10.37,2013-04-06 09:30:00,
2013-04-06 03:35:00,37.9,15.1,29.73,WSW,249,12.0,12.0,39,0.00,CLR,,0.00,WeatherDisplay:10.37,2013-04-06 09:35:00,
2013-04-06 03:40:00,37.9,15.1,29.73,NW,321,8.1,8.1,39,0.00,CLR,,0.00,WeatherDisplay:10.37,2013-04-06 09:40:00,
2013-04-06 03:45:00,37.9,15.1,29.74,NW,310,4.6,4.6,39,0.00,CLR,,0.00,WeatherDisplay:10.37,2013-04-06 09:45:00,
2013-04-06 03:50:00,37.8,15.0,29.74,SW,235,10.4,10.4,39,0.00,CLR,,0.00,WeatherDisplay:10.37,2013-04-06 09:50:00,
2013-04-06 03:55:00,37.9,15.1,29.74,SW,230,13.8,13.8,39,0.00,CLR,,0.00,WeatherDisplay:10.37,2013-04-06 09:55:00,
2013-04-06 04:00:00,37.9,15.1,29.74,SSW,194,16.0,16.0,39,0.00,CLR,,0.00,WeatherDisplay:10.37,2013-04-06 10:00:00,
2013-04-06 04:05:00,37.9,15.1,29.74,SW,231,14.0,14.0,39,0.00,CLR,,0.00,WeatherDisplay:10.37,2013-04-06 10:05:00,
2013-04-06 04:11:00,37.9,15.1,29.74,SW,221,19.6,19.6,39,0.00,CLR,,0.00,WeatherDisplay:10.37,2013-04-06 10:11:00,
2013-04-06 04:16:00,38.0,15.2,29.73,WSW,241,12.7,12.7,39,0.00,CLR,,0.00,WeatherDisplay:10.37,2013-04-06 10:16:00,
2013-04-06 04:21:00,37.8,15.0,29.73,SSW,213,13.8,13.8,39,0.00,CLR,,0.00,WeatherDisplay:10.37,2013-04-06 10:21:00,
2013-04-06 04:26:00,37.9,14.5,29.73,SW,217,18.4,18.4,38,0.00,CLR,,0.00,WeatherDisplay:10.37,2013-04-06 10:26:00,
2013-04-06 04:31:00,38.2,14.2,29.74,SSW,197,19.6,19.6,37,0.00,CLR,,0.00,WeatherDisplay:10.37,2013-04-06 10:31:00,
2013-04-06 04:36:00,38.3,14.3,29.74,SSE,159,12.7,12.7,37,0.00,CLR,,0.00,WeatherDisplay:10.37,2013-04-06 10:36:00,
2013-04-06 04:41:00,38.2,14.8,29.74,SSE,162,13.8,13.8,38,0.00,CLR,,0.00,WeatherDisplay:10.37,2013-04-06 10:41:00,
2013-04-06 04:46:00,37.9,13.9,29.73,SSE,153,18.4,18.4,37,0.00,CLR,,0.00,WeatherDisplay:10.37,2013-04-06 10:46:00,
2013-04-06 04:51:00,37.8,15.0,29.73,WSW,245,10.4,10.4,39,0.00,CLR,,0.00,WeatherDisplay:10.37,2013-04-06 10:51:00,
2013-04-06 04:56:00,37.6,14.8,29.73,SSE,168,13.0,13.0,39,0.00,CLR,,0.00,WeatherDisplay:10.37,2013-04-06 10:56:00,
2013-04-06 05:01:00,37.9,13.9,29.72,South,180,19.6,19.6,37,0.00,CLR,,0.00,WeatherDisplay:10.37,2013-04-06 11:01:00,
2013-04-06 05:07:00,37.8,15.0,29.72,SSE,165,16.1,16.1,39,0.00,CLR,,0.00,WeatherDisplay:10.37,2013-04-06 11:07:00,
2013-04-06 05:12:00,37.6,15.4,29.72,SE,146,18.4,18.4,40,0.00,CLR,,0.00,WeatherDisplay:10.37,2013-04-06 11:12:00,
2013-04-06 05:17:00,37.6,15.4,29.74,SSW,203,16.1,16.1,40,0.00,CLR,,0.00,WeatherDisplay:10.37,2013-04-06 11:17:00,
2013-04-06 05:22:00,37.5,15.9,29.74,South,182,16.1,16.1,41,0.00,CLR,,0.00,WeatherDisplay:10.37,2013-04-06 11:22:00,
2013-04-06 05:27:00,37.0,16.0,29.74,SW,220,11.5,11.5,42,0.00,CLR,,0.00,WeatherDisplay:10.37,2013-04-06 11:27:00,
2013-04-06 05:32:00,37.2,15.6,29.76,SSW,196,11.5,11.5,41,0.00,CLR,,0.00,WeatherDisplay:10.37,2013-04-06 11:32:00,
2013-04-06 05:33:00,37.2,15.6,29.76,SW,225,5.8,5.8,41,0.00,CLR,,0.00,WeatherDisplay:10.37,2013-04-06 11:33:00,
2013-04-06 05:38:00,37.3,15.7,29.76,SE,128,13.8,13.8,41,0.00,CLR,,0.00,WeatherDisplay:10.37,2013-04-06 11:38:00,
2013-04-06 05:43:00,37.0,16.5,29.76,SE,139,12.7,12.7,43,0.00,CLR,,0.00,WeatherDisplay:10.37,2013-04-06 11:43:00,
2013-04-06 05:48:00,36.6,17.7,29.76,ESE,108,4.6,4.6,46,0.00,CLR,,0.00,WeatherDisplay:10.37,2013-04-06 11:48:00,
2013-04-06 05:53:00,36.6,17.7,29.76,SSE,159,10.4,10.4,46,0.00,CLR,,0.00,WeatherDisplay:10.37,2013-04-06 11:53:00,
2013-04-06 05:58:00,36.9,17.5,29.76,SSW,207,10.4,10.4,45,0.00,CLR,,0.00,WeatherDisplay:10.37,2013-04-06 11:58:00,
2013-04-06 06:03:00,37.2,17.3,29.76,SE,132,8.1,8.1,44,0.00,CLR,,0.00,WeatherDisplay:10.37,2013-04-06 12:03:00,
2013-04-06 06:08:00,37.0,17.6,29.76,SSE,148,8.1,8.1,45,0.00,CLR,,0.00,WeatherDisplay:10.37,2013-04-06 12:08:00,
2013-04-06 06:13:00,36.9,18.0,29.76,South,170,11.5,11.5,46,0.00,CLR,,0.00,WeatherDisplay:10.37,2013-04-06 12:13:00,
2013-04-06 06:18:00,36.9,18.0,29.83,South,182,10.4,10.4,46,0.00,CLR,,0.00,WeatherDisplay:10.37,2013-04-06 12:18:00,
2013-04-06 06:23:00,36.8,17.9,29.83,SSW,207,10.0,10.0,46,0.00,CLR,,0.00,WeatherDisplay:10.37,2013-04-06 12:23:00,
2013-04-06 06:28:00,36.6,17.7,29.83,South,172,12.7,12.7,46,0.00,CLR,,0.00,WeatherDisplay:10.37,2013-04-06 12:28:00,
2013-04-06 06:33:00,36.8,17.9,29.83,SW,218,6.9,6.9,46,0.00,CLR,,0.00,WeatherDisplay:10.37,2013-04-06 12:33:00,
2013-04-06 06:38:00,36.8,18.4,29.83,South,177,10.0,10.0,47,0.00,CLR,,0.00,WeatherDisplay:10.37,2013-04-06 12:38:00,
2013-04-06 06:43:00,36.6,18.2,29.83,SSW,208,17.3,17.3,47,0.00,CLR,,0.00,WeatherDisplay:10.37,2013-04-06 12:43:00,
2013-04-06 06:48:00,37.2,17.3,29.83,WSW,244,12.7,12.7,44,0.00,CLR,,0.00,WeatherDisplay:10.37,2013-04-06 12:48:00,
2013-04-06 06:54:00,36.9,18.5,29.83,SSW,199,16.0,16.0,47,0.00,CLR,,0.00,WeatherDisplay:10.37,2013-04-06 12:54:00,
2013-04-06 06:59:00,37.2,18.8,29.83,WSW,241,12.7,12.7,47,0.00,CLR,,0.00,WeatherDisplay:10.37,2013-04-06 12:59:00,
2013-04-06 07:04:00,37.3,18.9,29.83,SW,224,10.4,10.4,47,0.00,CLR,,0.00,WeatherDisplay:10.37,2013-04-06 13:04:00,
2013-04-06 07:09:00,37.6,18.7,29.83,SSW,197,13.8,13.8,46,0.00,CLR,,0.00,WeatherDisplay:10.37,2013-04-06 13:09:00,
2013-04-06 07:14:00,38.0,18.5,29.83,SW,225,17.3,17.3,45,0.00,CLR,,0.00,WeatherDisplay:10.37,2013-04-06 13:14:00,
2013-04-06 07:19:00,38.2,18.7,29.86,SW,234,12.7,12.7,45,0.00,CLR,,0.00,WeatherDisplay:10.37,2013-04-06 13:19:00,
2013-04-06 07:24:00,38.6,17.5,29.86,West,276,18.0,18.0,42,0.00,CLR,,0.00,WeatherDisplay:10.37,2013-04-06 13:24:00,
2013-04-06 07:29:00,39.3,15.8,29.86,WNW,283,17.3,17.3,38,0.00,CLR,,0.00,WeatherDisplay:10.37,2013-04-06 13:29:00,
2013-04-06 07:34:00,39.6,16.0,29.87,WNW,283,8.1,8.1,38,0.00,CLR,,0.00,WeatherDisplay:10.37,2013-04-06 13:34:00,
2013-04-06 07:39:00,39.9,16.3,29.87,WSW,241,6.9,6.9,38,0.00,CLR,,0.00,WeatherDisplay:10.37,2013-04-06 13:39:00,
2013-04-06 07:44:00,40.2,17.2,29.87,West,266,10.4,10.4,39,0.00,CLR,,0.00,WeatherDisplay:10.37,2013-04-06 13:44:00,
2013-04-06 07:49:00,40.3,17.3,29.85,WSW,247,17.3,17.3,39,0.00,CLR,,0.00,WeatherDisplay:10.37,2013-04-06 13:49:00,
2013-04-06 07:54:00,40.5,17.5,29.85,West,275,13.8,13.8,39,0.00,CLR,,0.00,WeatherDisplay:10.37,2013-04-06 13:54:00,
2013-04-06 07:59:00,40.8,17.7,29.85,NW,306,21.0,21.0,39,0.00,CLR,,0.00,WeatherDisplay:10.37,2013-04-06 13:59:00,
2013-04-06 08:05:00,40.6,17.5,29.85,WSW,251,17.3,17.3,39,0.00,CLR,,0.00,WeatherDisplay:10.37,2013-04-06 14:05:00,
2013-04-06 08:10:00,40.1,17.1,29.85,West,276,18.4,18.4,39,0.00,CLR,,0.00,WeatherDisplay:10.37,2013-04-06 14:10:00,
2013-04-06 08:15:00,39.8,18.0,29.85,WSW,254,17.3,17.3,41,0.00,CLR,,0.00,WeatherDisplay:10.37,2013-04-06 14:15:00,
2013-04-06 08:20:00,39.9,17.5,29.83,WNW,288,17.3,17.3,40,0.00,CLR,,0.00,WeatherDisplay:10.37,2013-04-06 14:20:00,
2013-04-06 08:25:00,40.5,18.0,29.83,WSW,247,12.7,12.7,40,0.00,CLR,,0.00,WeatherDisplay:10.37,2013-04-06 14:25:00,
2013-04-06 08:30:00,41.2,17.5,29.83,WNW,283,10.4,10.4,38,0.00,CLR,,0.00,WeatherDisplay:10.37,2013-04-06 14:30:00,
2013-04-06 08:35:00,41.2,16.9,29.83,WSW,256,19.6,19.6,37,0.00,CLR,,0.00,WeatherDisplay:10.37,2013-04-06 14:35:00,
2013-04-06 08:40:00,41.1,17.4,29.83,West,269,17.3,17.3,38,0.00,CLR,,0.00,WeatherDisplay:10.37,2013-04-06 14:40:00,
2013-04-06 08:45:00,40.8,17.1,29.84,West,280,16.1,16.1,38,0.00,CLR,,0.00,WeatherDisplay:10.37,2013-04-06 14:45:00,
2013-04-06 08:50:00,40.6,17.5,29.84,WNW,290,13.8,13.8,39,0.00,CLR,,0.00,WeatherDisplay:10.37,2013-04-06 14:50:00,
2013-04-06 08:55:00,40.5,16.9,29.84,West,262,16.1,16.1,38,0.00,CLR,,0.00,WeatherDisplay:10.37,2013-04-06 14:55:00,
2013-04-06 09:00:00,40.6,16.9,29.84,West,275,13.8,13.8,38,0.00,CLR,,0.00,WeatherDisplay:10.37,2013-04-06 15:00:00,
2013-04-06 09:05:00,41.8,18.0,29.84,West,262,10.4,10.4,38,0.00,CLR,,0.00,WeatherDisplay:10.37,2013-04-06 15:05:00,
2013-04-06 09:10:00,41.8,16.1,29.84,SW,230,11.5,11.5,35,0.00,CLR,,0.00,WeatherDisplay:10.37,2013-04-06 15:10:00,
2013-04-06 09:16:00,41.8,16.1,29.82,WNW,285,11.0,11.0,35,0.00,CLR,,0.00,WeatherDisplay:10.37,2013-04-06 15:16:00,
2013-04-06 09:21:00,41.9,15.5,29.82,SW,231,8.1,8.1,34,0.00,CLR,,0.00,WeatherDisplay:10.37,2013-04-06 15:21:00,
2013-04-06 09:26:00,42.1,17.0,29.82,WSW,242,5.8,5.8,36,0.00,CLR,,0.00,WeatherDisplay:10.37,2013-04-06 15:26:00,
2013-04-06 09:31:00,42.8,14.9,29.81,WSW,251,11.5,11.5,32,0.00,CLR,,0.00,WeatherDisplay:10.37,2013-04-06 15:31:00,
2013-04-06 09:36:00,43.3,14.6,29.81,WSW,242,12.0,12.0,31,0.00,CLR,,0.00,WeatherDisplay:10.37,2013-04-06 15:36:00,
2013-04-06 09:41:00,43.8,12.8,29.81,SW,228,4.6,4.6,28,0.00,CLR,,0.00,WeatherDisplay:10.37,2013-04-06 15:41:00,
2013-04-06 09:46:00,44.3,13.2,29.81,NW,309,8.1,8.1,28,0.00,CLR,,0.00,WeatherDisplay:10.37,2013-04-06 15:46:00,
2013-04-06 09:51:00,44.5,14.9,29.81,WNW,282,8.1,8.1,30,0.00,CLR,,0.00,WeatherDisplay:10.37,2013-04-06 15:51:00,
2013-04-06 09:57:00,44.1,16.1,29.81,WSW,247,12.7,12.7,32,0.00,CLR,,0.00,WeatherDisplay:10.37,2013-04-06 15:57:00,
2013-04-06 10:02:00,44.1,17.5,29.82,WSW,242,13.0,13.0,34,0.00,CLR,,0.00,WeatherDisplay:10.37,2013-04-06 16:02:00,
2013-04-06 10:07:00,44.5,17.1,29.82,West,262,18.4,18.4,33,0.00,CLR,,0.00,WeatherDisplay:10.37,2013-04-06 16:07:00,
2013-04-06 10:12:00,44.3,18.3,29.82,SW,221,19.6,19.6,35,0.00,CLR,,0.00,WeatherDisplay:10.37,2013-04-06 16:12:00,
2013-04-06 10:17:00,44.5,17.1,29.80,SW,223,12.7,12.7,33,0.00,CLR,,0.00,WeatherDisplay:10.37,2013-04-06 16:17:00,
2013-04-06 10:22:00,44.8,17.4,29.80,SW,228,20.7,20.7,33,0.00,CLR,,0.00,WeatherDisplay:10.37,2013-04-06 16:22:00,
2013-04-06 10:27:00,45.1,19.0,29.80,WSW,247,19.6,19.6,35,0.00,CLR,,0.00,WeatherDisplay:10.37,2013-04-06 16:27:00,
2013-04-06 10:32:00,45.4,17.9,29.80,SSW,200,19.6,19.6,33,0.00,CLR,,0.00,WeatherDisplay:10.37,2013-04-06 16:32:00,
2013-04-06 10:37:00,46.2,18.6,29.80,WSW,240,17.3,17.3,33,0.00,CLR,,0.00,WeatherDisplay:10.37,2013-04-06 16:37:00,
2013-04-06 10:42:00,46.1,19.2,29.80,SSW,192,18.4,18.4,34,0.00,CLR,,0.00,WeatherDisplay:10.37,2013-04-06 16:42:00,
2013-04-06 10:47:00,46.1,17.8,29.80,SSW,210,19.6,19.6,32,0.00,CLR,,0.00,WeatherDisplay:10.37,2013-04-06 16:47:00,
2013-04-06 10:52:00,45.8,19.0,29.80,WSW,255,13.8,13.8,34,0.00,CLR,,0.00,WeatherDisplay:10.37,2013-04-06 16:52:00,
2013-04-06 10:57:00,45.4,18.6,29.80,SW,218,19.6,19.6,34,0.00,CLR,,0.00,WeatherDisplay:10.37,2013-04-06 16:57:00,
2013-04-06 11:02:00,46.1,19.2,29.80,South,182,11.5,11.5,34,0.00,CLR,,0.00,WeatherDisplay:10.37,2013-04-06 17:02:00,
2013-04-06 11:08:00,46.4,18.1,29.80,South,172,12.7,12.7,32,0.00,CLR,,0.00,WeatherDisplay:10.37,2013-04-06 17:08:00,
2013-04-06 11:13:00,46.8,18.5,29.80,West,264,11.5,11.5,32,0.00,CLR,,0.00,WeatherDisplay:10.37,2013-04-06 17:13:00,
2013-04-06 11:18:00,47.4,16.7,29.80,WSW,251,11.5,11.5,29,0.00,CLR,,0.00,WeatherDisplay:10.37,2013-04-06 17:18:00,
2013-04-06 11:23:00,47.6,16.9,29.80,SW,235,8.1,8.1,29,0.00,CLR,,0.00,WeatherDisplay:10.37,2013-04-06 17:23:00,
2013-04-06 11:28:00,47.1,18.7,29.80,SW,228,11.5,11.5,32,0.00,CLR,,0.00,WeatherDisplay:10.37,2013-04-06 17:28:00,
2013-04-06 11:33:00,47.0,18.6,29.80,West,262,16.1,16.1,32,0.00,CLR,,0.00,WeatherDisplay:10.37,2013-04-06 17:33:00,
2013-04-06 11:38:00,46.8,19.2,29.80,SW,214,13.8,13.8,33,0.00,CLR,,0.00,WeatherDisplay:10.37,2013-04-06 17:38:00,
2013-04-06 11:43:00,47.3,21.0,29.80,South,182,18.4,18.4,35,0.00,CLR,,0.00,WeatherDisplay:10.37,2013-04-06 17:43:00,
2013-04-06 11:48:00,48.0,21.6,29.78,SSW,204,16.0,16.0,35,0.00,CLR,,0.00,WeatherDisplay:10.37,2013-04-06 17:48:00,
2013-04-06 11:53:00,49.1,19.7,29.78,SW,225,12.7,12.7,31,0.00,CLR,,0.00,WeatherDisplay:10.37,2013-04-06 17:53:00,
2013-04-06 11:58:00,48.3,19.0,29.78,WSW,237,20.7,20.7,31,0.00,CLR,,0.00,WeatherDisplay:10.37,2013-04-06 17:58:00,
2013-04-06 12:03:00,48.3,18.3,29.78,SW,217,17.3,17.3,30,0.00,CLR,,0.00,WeatherDisplay:10.37,2013-04-06 18:03:00,
2013-04-06 12:08:00,48.6,20.8,29.78,SSW,208,13.0,13.0,33,0.00,CLR,,0.00,WeatherDisplay:10.37,2013-04-06 18:08:00,
2013-04-06 12:13:00,48.3,19.0,29.78,SSW,210,18.4,18.4,31,0.00,CLR,,0.00,WeatherDisplay:10.37,2013-04-06 18:13:00,
2013-04-06 12:18:00,48.2,18.2,29.79,WNW,286,17.0,17.0,30,0.00,CLR,,0.00,WeatherDisplay:10.37,2013-04-06 18:18:00,
2013-04-06 12:23:00,47.7,18.5,29.79,SW,230,17.3,17.3,31,0.00,CLR,,0.00,WeatherDisplay:10.37,2013-04-06 18:23:00,
2013-04-06 12:28:00,47.3,18.1,29.79,West,271,10.4,10.4,31,0.00,CLR,,0.00,WeatherDisplay:10.37,2013-04-06 18:28:00,
2013-04-06 12:33:00,47.9,18.7,29.78,SSW,211,8.1,8.1,31,0.00,CLR,,0.00,WeatherDisplay:10.37,2013-04-06 18:33:00,
2013-04-06 12:38:00,47.9,18.7,29.78,WNW,283,13.0,13.0,31,0.00,CLR,,0.00,WeatherDisplay:10.37,2013-04-06 18:38:00,
2013-04-06 12:43:00,48.9,17.2,29.78,WSW,256,11.5,11.5,28,0.00,CLR,,0.00,WeatherDisplay:10.37,2013-04-06 18:43:00,
2013-04-06 12:48:00,49.4,20.0,29.76,West,262,18.4,18.4,31,0.00,CLR,,0.00,WeatherDisplay:10.37,2013-04-06 18:48:00,
2013-04-06 12:53:00,49.8,21.1,29.76,WSW,238,18.4,18.4,32,0.00,CLR,,0.00,WeatherDisplay:10.37,2013-04-06 18:53:00,
2013-04-06 12:58:00,49.5,17.7,29.76,NNW,328,6.9,6.9,28,0.00,CLR,,0.00,WeatherDisplay:10.37,2013-04-06 18:58:00,
2013-04-06 13:03:00,50.5,18.6,29.77,SW,217,11.5,11.5,28,0.00,CLR,,0.00,WeatherDisplay:10.37,2013-04-06 19:03:00,
2013-04-06 13:08:00,50.5,17.7,29.77,WNW,289,11.0,11.0,27,0.00,CLR,,0.00,WeatherDisplay:10.37,2013-04-06 19:08:00,
2013-04-06 13:13:00,51.1,18.2,29.77,North,2,16.1,16.1,27,0.00,CLR,,0.00,WeatherDisplay:10.37,2013-04-06 19:13:00,
2013-04-06 13:18:00,51.6,18.7,29.76,West,279,11.5,11.5,27,0.00,CLR,,0.00,WeatherDisplay:10.37,2013-04-06 19:18:00,
2013-04-06 13:24:00,52.6,17.7,29.76,NW,310,13.8,13.8,25,0.00,CLR,,0.00,WeatherDisplay:10.37,2013-04-06 19:24:00,
2013-04-06 13:29:00,52.3,17.5,29.76,SSW,208,11.0,11.0,25,0.00,CLR,,0.00,WeatherDisplay:10.37,2013-04-06 19:29:00,
2013-04-06 13:34:00,52.5,19.4,29.74,SW,216,11.5,11.5,27,0.00,CLR,,0.00,WeatherDisplay:10.37,2013-04-06 19:34:00,
2013-04-06 13:39:00,53.9,16.9,29.74,NNW,347,12.0,12.0,23,0.00,CLR,,0.00,WeatherDisplay:10.37,2013-04-06 19:39:00,
2013-04-06 13:44:00,53.9,17.9,29.74,WSW,242,17.3,17.3,24,0.00,CLR,,0.00,WeatherDisplay:10.37,2013-04-06 19:44:00,
2013-04-06 13:49:00,51.7,17.9,29.72,SW,235,18.4,18.4,26,0.00,CLR,,0.00,WeatherDisplay:10.37,2013-04-06 19:49:00,
2013-04-06 13:54:00,51.4,16.7,29.72,SSW,203,24.2,24.2,25,0.00,CLR,,0.00,WeatherDisplay:10.37,2013-04-06 19:54:00,
2013-04-06 13:59:00,52.0,18.1,29.72,SW,232,16.0,16.0,26,0.00,CLR,,0.00,WeatherDisplay:10.37,2013-04-06 19:59:00,
2013-04-06 14:05:00,52.3,17.5,29.74,WNW,282,17.3,17.3,25,0.00,CLR,,0.00,WeatherDisplay:10.37,2013-04-06 20:05:00,
2013-04-06 14:10:00,51.1,17.4,29.74,SW,227,20.7,20.7,26,0.00,CLR,,0.00,WeatherDisplay:10.37,2013-04-06 20:10:00,
2013-04-06 14:15:00,50.5,17.7,29.74,SW,218,13.0,13.0,27,0.00,CLR,,0.00,WeatherDisplay:10.37,2013-04-06 20:15:00,
2013-04-06 14:20:00,51.7,18.7,29.75,SSW,210,17.3,17.3,27,0.00,CLR,,0.00,WeatherDisplay:10.37,2013-04-06 20:20:00,
2013-04-06 14:25:00,52.5,17.6,29.75,WSW,242,11.5,11.5,25,0.00,CLR,,0.00,WeatherDisplay:10.37,2013-04-06 20:25:00,
2013-04-06 14:30:00,50.7,17.9,29.75,SSW,193,11.0,11.0,27,0.00,CLR,,0.00,WeatherDisplay:10.37,2013-04-06 20:30:00,
2013-04-06 14:35:00,49.9,15.4,29.74,SSW,211,12.7,12.7,25,0.00,CLR,,0.00,WeatherDisplay:10.37,2013-04-06 20:35:00,
2013-04-06 14:40:00,50.2,15.7,29.74,WSW,238,18.4,18.4,25,0.00,CLR,,0.00,WeatherDisplay:10.37,2013-04-06 20:40:00,
2013-04-06 14:45:00,50.1,16.5,29.74,SSW,201,10.0,10.0,26,0.00,CLR,,0.00,WeatherDisplay:10.37,2013-04-06 20:45:00,
2013-04-06 14:50:00,49.9,16.3,29.76,WSW,251,11.5,11.5,26,0.00,CLR,,0.00,WeatherDisplay:10.37,2013-04-06 20:50:00,
2013-04-06 14:55:00,49.9,16.3,29.76,West,265,1.2,1.2,26,0.00,CLR,,0.00,WeatherDisplay:10.37,2013-04-06 20:55:00,
2013-04-06 15:00:00,50.4,17.6,29.76,NW,317,6.9,6.9,27,0.00,CLR,,0.00,WeatherDisplay:10.37,2013-04-06 21:00:00,
2013-04-06 15:05:00,50.1,17.4,29.76,WSW,238,10.4,10.4,27,0.00,CLR,,0.00,WeatherDisplay:10.37,2013-04-06 21:05:00,
2013-04-06 15:10:00,50.4,14.9,29.76,NNE,21,2.3,2.3,24,0.00,CLR,,0.00,WeatherDisplay:10.37,2013-04-06 21:10:00,
2013-04-06 15:15:00,50.7,14.2,29.76,WNW,292,17.3,17.3,23,0.00,CLR,,0.00,WeatherDisplay:10.37,2013-04-06 21:15:00,
2013-04-06 15:20:00,50.4,14.9,29.76,WNW,289,7.0,7.0,24,0.00,CLR,,0.00,WeatherDisplay:10.37,2013-04-06 21:20:00,
2013-04-06 15:25:00,51.1,14.5,29.76,WSW,256,21.9,21.9,23,0.00,CLR,,0.00,WeatherDisplay:10.37,2013-04-06 21:25:00,
2013-04-06 15:30:00,51.4,14.8,29.74,West,264,19.6,19.6,23,0.00,CLR,,0.00,WeatherDisplay:10.37,2013-04-06 21:30:00,
2013-04-06 15:35:00,53.5,15.5,29.74,West,271,11.5,11.5,22,0.00,CLR,,0.00,WeatherDisplay:10.37,2013-04-06 21:35:00,
2013-04-06 15:40:00,53.2,15.3,29.74,South,169,13.8,13.8,22,0.00,CLR,,0.00,WeatherDisplay:10.37,2013-04-06 21:40:00,
2013-04-06 15:45:00,53.6,14.5,29.71,West,262,10.4,10.4,21,0.00,CLR,,0.00,WeatherDisplay:10.37,2013-04-06 21:45:00,
2013-04-06 15:55:00,51.7,14.0,29.71,WNW,288,12.7,12.7,22,0.00,CLR,,0.00,WeatherDisplay:10.37,2013-04-06 21:55:00,
2013-04-06 16:00:00,52.2,14.4,29.71,NNW,334,11.5,11.5,22,0.00,CLR,,0.00,WeatherDisplay:10.37,2013-04-06 22:00:00,
2013-04-06 16:05:00,52.3,15.5,29.72,SSW,200,17.3,17.3,23,0.00,CLR,,0.00,WeatherDisplay:10.37,2013-04-06 22:05:00,
2013-04-06 16:10:00,52.3,14.5,29.72,West,271,25.3,25.3,22,0.00,CLR,,0.00,WeatherDisplay:10.37,2013-04-06 22:10:00,
2013-04-06 16:15:00,52.2,15.5,29.73,SW,218,19.6,19.6,23,0.00,CLR,,0.00,WeatherDisplay:10.37,2013-04-06 22:15:00,
2013-04-06 16:20:00,52.8,14.9,29.73,WNW,289,16.1,16.1,22,0.00,CLR,,0.00,WeatherDisplay:10.37,2013-04-06 22:20:00,
2013-04-06 16:25:00,52.8,16.0,29.73,WSW,251,11.5,11.5,23,0.00,CLR,,0.00,WeatherDisplay:10.37,2013-04-06 22:25:00,
2013-04-06 16:30:00,54.1,17.1,29.71,WNW,300,17.0,17.0,23,0.00,CLR,,0.00,WeatherDisplay:10.37,2013-04-06 22:30:00,
2013-04-06 16:35:00,55.0,16.8,29.71,NW,317,12.7,12.7,22,0.00,CLR,,0.00,WeatherDisplay:10.37,2013-04-06 22:35:00,
2013-04-06 16:40:00,53.9,16.9,29.71,WNW,290,13.8,13.8,23,0.00,CLR,,0.00,WeatherDisplay:10.37,2013-04-06 22:40:00,
2013-04-06 16:45:00,52.9,17.0,29.72,NNW,338,13.8,13.8,24,0.00,CLR,,0.00,WeatherDisplay:10.37,2013-04-06 22:45:00,
2013-04-06 16:50:00,52.6,16.8,29.72,NW,316,11.5,11.5,24,0.00,CLR,,0.00,WeatherDisplay:10.37,2013-04-06 22:50:00,
2013-04-06 16:55:00,52.0,16.3,29.72,NNW,336,17.3,17.3,24,0.00,CLR,,0.00,WeatherDisplay:10.37,2013-04-06 22:55:00,
2013-04-06 17:00:00,51.4,17.6,29.72,WNW,290,11.5,11.5,26,0.00,CLR,,0.00,WeatherDisplay:10.37,2013-04-06 23:00:00,
2013-04-06 17:05:00,51.4,16.7,29.74,West,269,17.3,17.3,25,0.00,CLR,,0.00,WeatherDisplay:10.37,2013-04-06 23:05:00,
2013-04-06 17:10:00,50.8,18.0,29.74,NNW,341,10.4,10.4,27,0.00,CLR,,0.00,WeatherDisplay:10.37,2013-04-06 23:10:00,
2013-04-06 17:15:00,50.5,17.7,29.74,West,268,4.6,5.4,27,0.00,CLR,,0.00,WeatherDisplay:10.37,2013-04-06 23:15:00,
2013-04-06 17:20:00,50.1,17.4,29.74,NNW,343,11.0,11.0,27,0.00,CLR,,0.00,WeatherDisplay:10.37,2013-04-06 23:20:00,
2013-04-06 17:25:00,50.1,17.4,29.74,NW,313,12.7,12.7,27,0.00,CLR,,0.00,WeatherDisplay:10.37,2013-04-06 23:25:00,
2013-04-06 17:30:00,49.6,17.8,29.76,West,279,8.1,8.1,28,0.00,CLR,,0.00,WeatherDisplay:10.37,2013-04-06 23:30:00,
2013-04-06 17:35:00,49.5,17.7,29.76,WNW,299,4.6,4.6,28,0.00,CLR,,0.00,WeatherDisplay:10.37,2013-04-06 23:35:00,
2013-04-06 17:40:00,49.4,17.6,29.76,WNW,292,5.8,5.8,28,0.00,CLR,,0.00,WeatherDisplay:10.37,2013-04-06 23:40:00,
2013-04-06 17:45:00,49.4,17.6,29.76,West,273,6.9,6.9,28,0.00,CLR,,0.00,WeatherDisplay:10.37,2013-04-06 23:45:00,
2013-04-06 17:50:00,49.5,17.7,29.76,WNW,290,3.5,3.5,28,0.00,CLR,,0.00,WeatherDisplay:10.37,2013-04-06 23:50:00,
2013-04-06 17:56:00,49.5,17.7,29.76,WSW,238,5.8,5.8,28,0.00,CLR,,0.00,WeatherDisplay:10.37,2013-04-06 23:56:00,
2013-04-06 18:01:00,49.4,17.6,29.76,WSW,256,8.1,8.1,28,0.00,CLR,,0.00,WeatherDisplay:10.37,2013-04-07 00:01:00,
2013-04-06 18:06:00,49.4,17.6,29.76,WSW,254,6.9,6.9,28,0.00,CLR,,0.00,WeatherDisplay:10.37,2013-04-07 00:06:00,
2013-04-06 18:11:00,49.4,18.4,29.76,WSW,238,6.9,6.9,29,0.00,CLR,,0.00,WeatherDisplay:10.37,2013-04-07 00:11:00,
2013-04-06 18:17:00,49.1,19.0,29.77,WSW,254,6.9,6.9,30,0.00,CLR,,0.00,WeatherDisplay:10.37,2013-04-07 00:17:00,
2013-04-06 18:22:00,48.9,18.0,29.77,WSW,238,6.9,6.9,29,0.00,CLR,,0.00,WeatherDisplay:10.37,2013-04-07 00:22:00,
2013-04-06 18:27:00,48.8,17.9,29.77,SSW,201,12.7,12.7,29,0.00,CLR,,0.00,WeatherDisplay:10.37,2013-04-07 00:27:00,
2013-04-06 18:32:00,48.6,17.7,29.77,South,184,12.7,12.7,29,0.00,CLR,,0.00,WeatherDisplay:10.37,2013-04-07 00:32:00,
2013-04-06 18:37:00,48.5,18.4,29.77,WSW,238,10.4,10.4,30,0.00,CLR,,0.00,WeatherDisplay:10.37,2013-04-07 00:37:00,
2013-04-06 18:42:00,48.3,19.0,29.77,WSW,242,18.4,18.4,31,0.00,CLR,,0.00,WeatherDisplay:10.37,2013-04-07 00:42:00,
2013-04-06 18:47:00,47.6,20.6,29.79,West,264,11.5,11.5,34,0.00,CLR,,0.00,WeatherDisplay:10.37,2013-04-07 00:47:00,
2013-04-06 18:52:00,47.1,20.8,29.79,WSW,245,11.5,11.5,35,0.00,CLR,,0.00,WeatherDisplay:10.37,2013-04-07 00:52:00,
2013-04-06 18:57:00,47.1,20.8,29.79,WNW,288,8.1,8.1,35,0.00,CLR,,0.00,WeatherDisplay:10.37,2013-04-07 00:57:00,
2013-04-06 19:02:00,47.1,20.8,29.79,WNW,283,6.0,6.0,35,0.00,CLR,,0.00,WeatherDisplay:10.37,2013-04-07 01:02:00,
2013-04-06 19:08:00,47.1,19.4,29.79,WSW,238,10.4,10.4,33,0.00,CLR,,0.00,WeatherDisplay:10.37,2013-04-07 01:08:00,
2013-04-06 19:13:00,47.1,20.1,29.79,WSW,254,7.0,7.0,34,0.00,CLR,,0.00,WeatherDisplay:10.37,2013-04-07 01:13:00,
2013-04-06 19:18:00,47.0,20.0,29.76,WSW,254,8.1,8.1,34,0.00,CLR,,0.00,WeatherDisplay:10.37,2013-04-07 01:18:00,
2013-04-06 19:23:00,46.8,20.6,29.76,West,262,5.0,5.0,35,0.00,CLR,,0.00,WeatherDisplay:10.37,2013-04-07 01:23:00,
2013-04-06 19:28:00,46.7,21.1,29.76,WSW,247,5.8,5.8,36,0.00,CLR,,0.00,WeatherDisplay:10.37,2013-04-07 01:28:00,
2013-04-06 19:33:00,46.5,20.9,29.75,WNW,285,2.3,2.3,36,0.00,CLR,,0.00,WeatherDisplay:10.37,2013-04-07 01:33:00,
2013-04-06 19:38:00,46.2,21.3,29.75,WNW,285,4.6,4.6,37,0.00,CLR,,0.00,WeatherDisplay:10.37,2013-04-07 01:38:00,
2013-04-06 19:43:00,46.1,21.9,29.75,WNW,285,1.2,1.2,38,0.00,CLR,,0.00,WeatherDisplay:10.37,2013-04-07 01:43:00,
2013-04-06 19:48:00,45.8,22.2,29.77,WNW,285,3.5,3.5,39,0.00,CLR,,0.00,WeatherDisplay:10.37,2013-04-07 01:48:00,
2013-04-06 19:53:00,45.5,22.5,29.77,WNW,285,1.2,1.2,40,0.00,CLR,,0.00,WeatherDisplay:10.37,2013-04-07 01:53:00,
2013-04-06 19:58:00,45.4,21.9,29.77,WNW,283,4.6,4.6,39,0.00,CLR,,0.00,WeatherDisplay:10.37,2013-04-07 01:58:00,
2013-04-06 20:03:00,45.2,22.3,29.78,WSW,248,5.8,5.8,40,0.00,CLR,,0.00,WeatherDisplay:10.37,2013-04-07 02:03:00,
2013-04-06 20:08:00,45.4,22.5,29.78,SSW,213,11.0,11.0,40,0.00,CLR,,0.00,WeatherDisplay:10.37,2013-04-07 02:08:00,
2013-04-06 20:13:00,45.5,21.9,29.78,South,182,10.4,10.4,39,0.00,CLR,,0.00,WeatherDisplay:10.37,2013-04-07 02:13:00,
2013-04-06 20:18:00,45.5,21.9,29.78,SSW,203,7.0,7.0,39,0.00,CLR,,0.00,WeatherDisplay:10.37,2013-04-07 02:18:00,
2013-04-06 20:23:00,45.2,22.3,29.78,SSW,201,8.1,8.1,40,0.00,CLR,,0.00,WeatherDisplay:10.37,2013-04-07 02:23:00,
2013-04-06 20:28:00,45.1,22.8,29.78,SW,217,5.0,5.0,41,0.00,CLR,,0.00,WeatherDisplay:10.37,2013-04-07 02:28:00,
2013-04-06 20:33:00,44.9,22.6,29.78,SSW,201,4.6,4.6,41,0.00,CLR,,0.00,WeatherDisplay:10.37,2013-04-07 02:33:00,
2013-04-06 20:38:00,44.8,22.5,29.78,SSW,201,1.2,1.2,41,0.00,CLR,,0.00,WeatherDisplay:10.37,2013-04-07 02:38:00,
2013-04-06 20:43:00,44.5,22.2,29.78,West,279,3.5,3.5,41,0.00,CLR,,0.00,WeatherDisplay:10.37,2013-04-07 02:43:00,
2013-04-06 20:48:00,44.2,22.5,29.80,West,280,2.3,2.3,42,0.00,CLR,,0.00,WeatherDisplay:10.37,2013-04-07 02:48:00,
2013-04-06 20:53:00,43.8,22.7,29.80,West,280,2.3,2.3,43,0.00,CLR,,0.00,WeatherDisplay:10.37,2013-04-07 02:53:00,
2013-04-06 20:58:00,43.3,22.8,29.80,West,280,2.3,2.3,44,0.00,CLR,,0.00,WeatherDisplay:10.37,2013-04-07 02:58:00,
2013-04-06 21:04:00,42.9,23.0,29.80,West,280,1.2,0.0,45,0.00,CLR,,0.00,WeatherDisplay:10.37,2013-04-07 03:04:00,
2013-04-06 21:09:00,42.6,23.2,29.80,West,280,1.2,1.2,46,0.00,CLR,,0.00,WeatherDisplay:10.37,2013-04-07 03:09:00,
2013-04-06 21:14:00,42.3,22.4,29.80,West,280,1.0,1.0,45,0.00,CLR,,0.00,WeatherDisplay:10.37,2013-04-07 03:14:00,
2013-04-06 21:19:00,42.1,23.3,29.79,West,280,2.3,2.3,47,0.00,CLR,,0.00,WeatherDisplay:10.37,2013-04-07 03:19:00,
2013-04-06 21:24:00,41.6,23.3,29.79,WNW,300,3.5,3.5,48,0.00,CLR,,0.00,WeatherDisplay:10.37,2013-04-07 03:24:00,
2013-04-06 21:29:00,41.2,23.5,29.79,WNW,299,3.5,3.5,49,0.00,CLR,,0.00,WeatherDisplay:10.37,2013-04-07 03:29:00,
2013-04-06 21:34:00,40.9,22.2,29.81,NW,307,3.5,3.5,47,0.00,CLR,,0.00,WeatherDisplay:10.37,2013-04-07 03:34:00,
2013-04-06 21:39:00,40.9,21.7,29.81,WNW,295,3.0,3.0,46,0.00,CLR,,0.00,WeatherDisplay:10.37,2013-04-07 03:39:00,
2013-04-06 21:44:00,41.8,22.5,29.81,WNW,295,3.5,3.5,46,0.00,CLR,,0.00,WeatherDisplay:10.37,2013-04-07 03:44:00,
2013-04-06 21:49:00,41.6,24.3,29.79,WNW,296,1.2,1.2,50,0.00,CLR,,0.00,WeatherDisplay:10.37,2013-04-07 03:49:00,
2013-04-06 21:54:00,41.2,23.9,29.79,WNW,296,2.3,2.3,50,0.00,CLR,,0.00,WeatherDisplay:10.37,2013-04-07 03:54:00,
2013-04-06 21:59:00,41.1,23.4,29.79,WNW,296,3.5,3.5,49,0.00,CLR,,0.00,WeatherDisplay:10.37,2013-04-07 03:59:00,
2013-04-06 22:00:00,41.1,23.4,29.79,WNW,296,3.5,3.5,49,0.00,CLR,,0.00,WeatherDisplay:10.37,2013-04-07 04:00:00,
2013-04-06 22:01:00,40.9,23.2,29.81,WNW,296,3.5,3.5,49,0.00,CLR,,0.00,WeatherDisplay:10.37,2013-04-07 04:01:00,
2013-04-06 22:03:00,40.9,23.2,29.81,WNW,296,2.3,2.3,49,0.00,CLR,,0.00,WeatherDisplay:10.37,2013-04-07 04:03:00,
2013-04-06 22:08:00,40.8,22.6,29.81,WNW,296,3.5,3.5,48,0.00,CLR,,0.00,WeatherDisplay:10.37,2013-04-07 04:08:00,
2013-04-06 22:13:00,40.8,23.6,29.81,WNW,296,0.0,0.0,50,0.00,CLR,,0.00,WeatherDisplay:10.37,2013-04-07 04:13:00,
2013-04-06 22:18:00,40.8,22.1,29.79,NNE,29,3.5,3.5,47,0.00,CLR,,0.00,WeatherDisplay:10.37,2013-04-07 04:18:00,
2013-04-06 22:23:00,40.9,24.6,29.79,North,4,2.3,2.3,52,0.00,CLR,,0.00,WeatherDisplay:10.37,2013-04-07 04:23:00,
2013-04-06 22:28:00,40.8,23.6,29.79,North,4,2.3,2.3,50,0.00,CLR,,0.00,WeatherDisplay:10.37,2013-04-07 04:28:00,
2013-04-06 22:33:00,40.8,24.5,29.78,North,4,2.3,2.3,52,0.00,CLR,,0.00,WeatherDisplay:10.37,2013-04-07 04:33:00,
2013-04-06 22:38:00,40.8,22.6,29.78,North,4,1.2,1.2,48,0.00,CLR,,0.00,WeatherDisplay:10.37,2013-04-07 04:38:00,
2013-04-06 22:43:00,40.8,24.1,29.78,North,4,0.0,0.0,51,0.00,CLR,,0.00,WeatherDisplay:10.37,2013-04-07 04:43:00,
2013-04-06 22:48:00,40.9,23.2,29.78,North,352,3.5,3.5,49,0.00,CLR,,0.00,WeatherDisplay:10.37,2013-04-07 04:48:00,
2013-04-06 22:53:00,41.2,23.0,29.78,West,280,6.0,6.0,48,0.00,CLR,,0.00,WeatherDisplay:10.37,2013-04-07 04:53:00,
2013-04-06 22:59:00,42.2,24.4,29.78,SW,214,10.4,10.4,49,0.00,CLR,,0.00,WeatherDisplay:10.37,2013-04-07 04:59:00,
2013-04-06 23:04:00,42.8,25.9,29.76,SW,234,11.5,11.5,51,0.00,CLR,,0.00,WeatherDisplay:10.37,2013-04-07 05:04:00,
2013-04-06 23:09:00,42.5,26.1,29.76,West,265,17.3,17.3,52,0.00,CLR,,0.00,WeatherDisplay:10.37,2013-04-07 05:09:00,
2013-04-06 23:14:00,41.9,27.3,29.76,WSW,248,17.3,17.3,56,0.00,CLR,,0.00,WeatherDisplay:10.37,2013-04-07 05:14:00,
2013-04-06 23:19:00,41.6,27.5,29.75,West,272,11.5,11.5,57,0.00,CLR,,0.00,WeatherDisplay:10.37,2013-04-07 05:19:00,
2013-04-06 23:24:00,41.2,27.9,29.75,WSW,238,10.4,10.4,59,0.00,CLR,,0.00,WeatherDisplay:10.37,2013-04-07 05:24:00,
2013-04-06 23:29:00,40.9,27.7,29.75,WSW,252,8.1,8.1,59,0.00,CLR,,0.00,WeatherDisplay:10.37,2013-04-07 05:29:00,
2013-04-06 23:34:00,40.8,28.0,29.76,WNW,290,6.9,6.9,60,0.00,CLR,,0.00,WeatherDisplay:10.37,2013-04-07 05:34:00,
2013-04-06 23:39:00,40.6,27.8,29.76,WNW,293,4.6,4.6,60,0.00,CLR,,0.00,WeatherDisplay:10.37,2013-04-07 05:39:00,
2013-04-06 23:44:00,40.5,28.1,29.76,WSW,241,7.0,7.0,61,0.00,CLR,,0.00,WeatherDisplay:10.37,2013-04-07 05:44:00,
2013-04-06 23:50:00,40.2,28.2,29.75,West,279,5.0,5.0,62,0.00,CLR,,0.00,WeatherDisplay:10.37,2013-04-07 05:50:00,
2013-04-06 23:55:00,39.9,28.3,29.75,West,272,5.0,5.0,63,0.00,CLR,,0.00,WeatherDisplay:10.37,2013-04-07 05:55:00,